#timestamp,LO_Frequency,Hit,StdDev 
1550916015.1,286046998.6,N
1550916035.9,286047000.0,N
1550916055.7,286046999.8,N
1550916075.5,286046998.2,N
1550916095.4,286046999.3,N
1550916115.2,286047000.7,N
1550916135.0,286047000.3,N
1550916135.9,286047000.3,N
1550916155.8,286046999.7,N
1550916175.6,286047000.1,N
1550916195.5,286047000.7,N
1550916215.3,286046999.5,N
1550916235.1,286046999.3,N
1550916255.9,286046996.7,Y
1550916275.7,286046996.9,P
1550916295.5,286046994.9,P
1550916315.6,286046999.6,N
1550916335.4,286046996.6,N
1550916385.3,286046996.6,E
1550916395.2,286046998.1,N
1550916415.0,286047004.2,P
1550916415.9,286047004.2,N
1550916435.8,286047003.4,N
1550916455.6,286047004.3,N
1550916475.4,286047001.3,N
1550916495.3,286047001.8,N
1550916515.1,286047002.7,N
1550916535.9,286047001.7,N
1550916555.7,286047004.4,N
1550916575.5,286047003.0,N
1550916595.4,286047002.9,N
1550916615.2,286047003.7,N
1550916635.0,286047003.1,N
1550916635.9,286047003.1,N
1550916655.8,286047003.4,N
1550916675.6,286047003.1,N
1550916695.5,286047004.3,N
1550916715.3,286047003.3,N
1550916735.1,286047007.5,Y
1550916755.9,286047001.3,P
1550916775.7,286046999.8,N
1550916795.5,286047001.6,N
1550916815.4,286047001.2,N
1550916835.2,286047001.2,N
1550916855.9,286047001.1,N
1550916875.7,286046998.6,N
1550916895.5,286047000.6,N
1550916915.4,286046999.7,N
1550916935.2,286047002.8,N
1550916955.1,286047001.0,N
1550916956.0,286047001.0,N
1550916975.8,286047000.8,N
1550916995.6,286046998.6,N
1550917015.5,286046999.9,N
1550917035.3,286046999.8,N
1550917055.2,286047002.7,N
1550917075.9,286047000.0,N
1550917095.7,286047001.1,N
1550917115.6,286046998.8,N
1550917135.4,286047000.8,N
1550917155.3,286046998.2,N
1550917175.1,286046999.1,N
1550917176.0,286046999.1,N
1550917195.8,286046999.0,N
1550917215.7,286046998.7,N
1550917235.5,286047001.5,N
1550917255.3,286047000.2,N
1550917275.2,286047002.8,N
1550917295.0,286047002.7,N
1550917295.9,286047002.7,N
1550917315.8,286047002.2,N
1550917335.6,286047001.9,N
1550917355.4,286047004.1,N
1550917375.3,286047003.8,N
1550917395.1,286047001.8,N
1550917415.8,286047003.6,N
1550917435.7,286047003.3,N
1550917455.5,286047003.2,N
1550917475.4,286047003.9,N
1550917495.2,286047003.2,N
1550917515.0,286047003.3,N
1550917515.9,286047003.3,N
1550917535.8,286047003.4,N
1550917555.6,286047004.2,N
1550917575.4,286047004.1,N
1550917595.3,286047002.2,N
1550917615.1,286047002.4,N
1550917635.9,286047002.3,N
1550917655.7,286047000.4,N
1550917675.5,286047001.6,N
1550917695.4,286047002.4,N
1550917715.2,286047002.3,N
1550917735.0,286046998.6,N
1550917735.9,286046998.6,N
1550917755.8,286046998.1,N
1550917775.6,286047000.6,N
1550917795.5,286047001.0,N
1550917815.3,286047000.6,N
1550917835.1,286047000.3,N
1550917855.9,286047001.5,N
1550917875.7,286046999.7,N
1550917895.6,286047000.3,N
1550917915.4,286047002.6,N
1550917935.3,286047000.4,N
1550917955.1,286046999.1,N
1550917956.0,286046999.1,N
1550917975.8,286046999.4,N
1550917995.7,286046999.0,N
1550918015.5,286047001.2,N
1550918035.4,286047000.8,N
1550918055.2,286046999.7,N
1550918075.0,286047002.8,N
1550918075.9,286047002.8,N
1550918095.8,286046999.7,N
1550918115.6,286047002.3,N
1550918135.4,286047001.5,N
1550918155.3,286047001.5,N
1550918175.1,286047003.6,N
1550918195.9,286047003.5,N
1550918215.7,286047002.3,N
1550918235.5,286047002.8,N
1550918255.4,286047001.6,N
1550918275.2,286047003.2,N
1550918295.0,286047001.6,N
1550918295.9,286047001.6,N
1550918315.8,286047001.4,N
1550918335.6,286047002.8,N
1550918355.5,286047002.0,N
1550918375.3,286047000.9,N
1550918395.1,286047002.0,N
1550918415.9,286047003.5,N
1550918435.7,286047004.4,Y
1550918455.6,286046999.8,P
1550918475.4,286047000.6,N
1550918495.2,286047000.9,N
1550918515.1,286046998.7,N
1550918516.0,286046998.7,N
1550918535.8,286046998.8,N
1550918555.7,286047000.8,N
1550918575.5,286047000.0,N
1550918595.3,286046999.8,N
1550918615.2,286047001.0,N
1550918635.9,286047002.0,N
1550918655.7,286047002.8,N
1550918675.6,286047002.7,N
1550918695.4,286047001.3,N
1550918715.3,286047003.7,N
1550918735.1,286047003.1,N
1550918736.0,286047003.1,N
1550918755.8,286047001.4,N
1550918775.7,286047004.2,N
1550918795.5,286047001.3,N
1550918815.3,286047002.3,N
1550918835.2,286047000.1,N
1550918855.0,286047000.7,N
1550918855.9,286047000.7,N
1550918875.8,286046999.0,N
1550918895.6,286046998.4,N
1550918915.4,286046998.4,N
1550918935.3,286046997.0,N
1550918955.1,286046999.6,N
1550918975.8,286046998.6,N
1550918995.7,286047000.5,N
1550919015.5,286047001.9,N
1550919035.4,286047002.7,N
1550919055.2,286047000.3,N
1550919075.0,286047000.0,N
1550919075.9,286047000.0,N
1550919095.8,286046998.5,N
1550919115.6,286046999.9,N
1550919135.4,286047000.8,N
1550919155.3,286047000.7,N
1550919175.1,286047002.4,N
1550919195.9,286047000.0,N
1550919215.7,286047002.6,N
1550919235.5,286047002.6,N
1550919255.4,286047000.9,N
1550919275.2,286046998.2,N
1550919295.0,286047000.8,N
1550919295.9,286047000.8,N
1550919315.8,286046999.1,N
1550919335.6,286046999.0,N
1550919355.5,286046996.9,N
1550919375.3,286046997.0,N
1550919395.1,286047000.8,N
1550919415.9,286047001.0,N
1550919435.7,286046998.2,N
1550919455.5,286046996.7,N
1550919475.4,286046999.4,N
1550919495.2,286046999.0,N
1550919515.1,286046999.4,N
1550919516.0,286046999.4,N
1550919535.8,286046999.3,N
1550919555.6,286046999.5,N
1550919575.5,286046998.7,N
1550919595.3,286046998.6,N
